Tracking 28790 objects as of 19-Apr-2024
HD Live streaming from Space Station
objects crossing your sky now

FENGYUN 1C DEB

Track FENGYUN 1C DEB now!
10-day predictions


NORAD ID: 36255
Int'l Code: 1999-025DWG
Perigee: 742.1 km
Apogee: 842.7 km
Inclination: 99.5 °
Period: 100.6 minutes
Semi major axis: 7163 km
RCS: 0.0095 m2 (small)
Launch date: May 10, 1999
Source: People's Republic of China (PRC)
Launch site: Taiyaun Space Center, China (TSC)

Note: This is SATELLITE DEBRIS
Your satellite tracking list
Your tracking list is empty




NASA's NSSDC Master Catalog

Two Line Element Set (TLE):
1 36255U 99025DWG 24107.42456341  .00003728  00000-0  13718-2 0  9991
2 36255  99.4819 325.8745 0070180 108.8068  14.4829 14.31934738553323
Source of the keplerian elements: AFSPC